Location: La Tine
(46.4708°N, 7.0525°E)
Time: 03:38:36
(UTC+00:00)

CZ-2C R/B - Visible Passes

Search period start: 26 January 2021 00:00
Search period end: 05 February 2021 00:00
Orbit: 785 x 870 km, 98.2° (Epoch: 25 January)

Date Brightness Start Highest point End Pass type
(mag) Time Alt. Az. Time Alt. Az. Time Alt. Az.
26 Jan 3.6 05:14:56 10° SE 05:19:58 48° ENE 05:25:08 10° N visible
26 Jan 4.0 17:31:47 12° NE 17:34:56 18° E 17:38:42 10° SE visible
26 Jan 2.9 19:13:14 34° N 19:15:45 73° WNW 19:21:20 10° SSW visible
26 Jan 5.4 20:54:42 13° NW 20:55:06 13° NW 20:57:41 10° W visible
27 Jan 4.2 04:56:46 10° SE 05:01:30 35° ENE 05:06:20 10° N visible
27 Jan 4.4 17:13:45 10° ENE 17:16:04 13° E 17:18:24 10° ESE visible
27 Jan 2.6 18:53:40 24° NNE 18:57:11 82° ESE 19:02:49 10° SSW visible
27 Jan 5.1 20:35:07 16° NW 20:36:48 18° WNW 20:40:29 10° W visible
28 Jan 4.7 04:38:47 10° ESE 04:43:04 26° ENE 04:47:27 10° N visible
28 Jan 2.8 06:17:55 10° S 06:23:03 51° W 06:28:19 10° NNW visible
28 Jan 2.7 18:33:44 14° NNE 18:38:34 59° E 18:44:05 10° S visible
28 Jan 4.7 20:15:09 15° NNW 20:18:27 25° WNW 20:22:52 10° WSW visible
29 Jan 5.1 04:21:05 10° ESE 04:24:42 19° ENE 04:28:24 10° NNE visible
29 Jan 2.6 05:59:07 10° S 06:04:23 73° WSW 06:09:49 10° NNW visible
29 Jan 3.1 18:14:35 10° NNE 18:19:53 42° E 18:25:11 10° SSE visible
29 Jan 4.2 19:55:06 10° N 20:00:02 33° WNW 20:04:59 10° SW visible
30 Jan 5.4 04:03:44 10° E 04:06:24 14° NE 04:09:05 10° NNE visible
30 Jan 2.8 05:40:30 10° SSE 05:45:47 80° ENE 05:51:15 10° NNW visible
30 Jan 3.5 17:56:17 10° NNE 18:01:10 30° E 18:06:02 10° SSE visible
30 Jan 3.7 19:36:17 10° N 19:41:35 45° WNW 19:46:54 10° SW visible
31 Jan 5.7 03:47:56 10° NE 03:48:08 10° NE 03:48:20 10° NE visible
31 Jan 3.3 05:22:04 10° SSE 05:27:14 57° ENE 05:32:35 10° N visible
31 Jan 3.9 17:38:10 10° NE 17:42:24 21° E 17:46:36 10° SE visible
31 Jan 3.1 19:17:33 10° N 19:23:05 63° WNW 19:28:38 10° SSW visible
31 Jan 5.6 21:00:28 10° NNW 21:02:18 12° NW 21:04:09 10° WNW visible
01 Feb 3.9 05:03:48 10° SE 05:08:45 41° ENE 05:13:50 10° N visible
01 Feb 4.2 17:20:25 10° NE 17:23:34 15° E 17:26:42 10° ESE visible
01 Feb 2.7 18:58:54 10° NNE 19:04:33 86° WNW 19:10:10 10° SSW visible
01 Feb 5.3 20:40:46 10° NNW 20:44:01 16° NW 20:47:18 10° W visible
02 Feb 4.5 04:45:44 10° ESE 04:50:18 30° ENE 04:54:59 10° N visible
02 Feb 2.6 18:40:20 10° NNE 18:45:57 69° ESE 18:51:32 10° S visible
02 Feb 4.9 20:21:34 10° NNW 20:25:42 22° WNW 20:29:49 10° WSW visible
03 Feb 5.0 04:27:54 10° ESE 04:31:55 22° ENE 04:36:01 10° NNE visible
03 Feb 2.7 06:06:27 10° S 06:11:43 62° W 06:17:10 10° NNW visible
03 Feb 2.9 18:21:50 10° NNE 18:27:18 49° E 18:32:43 10° S visible
03 Feb 4.5 20:02:35 10° N 20:07:19 29° WNW 20:12:03 10° WSW visible
04 Feb 5.3 04:10:20 10° E 04:13:35 16° NE 04:16:52 10° NNE visible
04 Feb 2.7 05:47:45 10° SSE 05:53:06 88° WSW 05:58:38 10° NNW visible
04 Feb 3.3 18:03:29 10° NNE 18:08:36 35° E 18:13:41 10° SSE visible
04 Feb 4.0 19:43:43 10° N 19:48:54 39° WNW 19:54:03 10° SW visible
